Austin Bergstrom International Airport
KAUS : rendu visible

Aérodrome :











RETROUVEZ-NOUS SUR...

 
LOGIN :

S'inscrire | Disclaimer

   EN    FR    IT 

 









Légende :    VFR   VFR Marginal   IFR   IFR Intensif   IFR Très Intensif
Visi : 
Plafond : 
>= 8 km
>= 3000ft
5 à 8 km
1000 à 3000 ft
1500m à 5 km
500 à 1000 ft
800 à 1500m
200 à 500 ft
< 800m
< 200 ft
Symboles :   Orages  Brouillard  Fortes neiges  Fortes précipitations  Vent > 20 kt






- Altitude de l'aérodrome : 542 ft
- Code IATA : AUS


KAUS - Austin Bergstrom International

DERNIER METAR :
  • 282153Z 35007KT 10SM SCT050 BKN250 29/20 A2994 RMK AO2 SLP129 T02890200

METARs EXPIRÉS :
  • 282053Z 05008KT 10SM SCT040 BKN250 30/21 A2990 RMK AO2 SLP115 T03000211 56023
  • 281953Z 10005G15KT 10SM SCT037 BKN250 31/22 A2990 RMK AO2 SLP117 T03060217

TAF KAUS
Valide du 28 à 18h jusqu'au 30 à 00h UTC


281735Z 2818/2924 04008KT P6SM FEW035 FEW250
FM282200 05008KT P6SM VCTS SCT035CB
FM290200 35004KT P6SM BKN035
FM291400 36011KT P6SM BKN050
FIR KZHU / Amérique du Nord



MET'MAP, la Météo Aéronautique d'un coup d'oeil ! - Copyright ORBIFLY Décembre 2007 - Disclaimer

ORBIFLY MET'MAP TEAM :

Programmation & Développement : Alexandra Zaïnal
Sur une idée originale de : Baudouin d'Aumeries
Assistance à la programmation : Marc-Olivier Méhu
Soutien technique & logistique : Manuel Goepfert

Contact : metmap@orbifly.com




SOURCES & CREDITS :

   NOAA       Earth
Advisory